This is the latest recevied weather packets stored in our database for station/object KC5EZZ-2. If no packets are shown the sender has not sent any weather packets the latest 1 day(s).
| Time | Temp. | Humidity | Pressure | Rain* | Wind** | Luminosity | Snow |
|---|---|---|---|---|---|---|---|
| 1778022614 | 33.33° C | - | - | 0 mm | 3.13 m/s, 214° | - | - |
| 1778022315 | 33.89° C | - | - | 0 mm | 3.13 m/s, 229° | - | - |
| 1778022012 | 33.33° C | - | - | 0 mm | 3.13 m/s, 226° | - | - |
| 1778021713 | 33.33° C | - | - | 0 mm | 3.13 m/s, 255° | - | - |
| 1778021413 | 33.89° C | - | - | 0 mm | 3.13 m/s, 229° | - | - |
| 1778021110 | 34.44° C | - | - | 0 mm | 3.58 m/s, 218° | - | - |
| 1778020811 | 34.44° C | - | - | 0 mm | 1.79 m/s, 205° | - | - |
| 1778020511 | 34.44° C | - | - | 0 mm | 3.13 m/s, 243° | - | - |
| 1778020216 | 33.89° C | - | - | 0 mm | 2.68 m/s, 252° | - | - |
| 1778019909 | 34.44° C | - | - | 0 mm | 3.58 m/s, 231° | - | - |
| 1778019609 | 33.89° C | - | - | 0 mm | 3.58 m/s, 235° | - | - |
| 1778019305 | 33.89° C | - | - | 0 mm | 3.13 m/s, 221° | - | - |
| 1778019005 | 33.33° C | - | - | 0 mm | 3.58 m/s, 246° | - | - |
| 1778018705 | 34.44° C | - | - | 0 mm | 3.58 m/s, 214° | - | - |
| 1778018403 | 34.44° C | - | - | 0 mm | 2.68 m/s, 232° | - | - |
| 1778018103 | 33.33° C | - | - | 0 mm | 4.02 m/s, 242° | - | - |
| 1778017803 | 34.44° C | - | - | 0 mm | 3.13 m/s, 242° | - | - |
| 1778017501 | 34.44° C | - | - | 0 mm | 1.79 m/s, 222° | - | - |
| 1778017201 | 33.33° C | - | - | 0 mm | 2.24 m/s, 203° | - | - |
| 1778016901 | 33.89° C | - | - | 0 mm | 3.58 m/s, 257° | - | - |
| 1778016849 | 33.89° C | - | - | 0 mm | 4.02 m/s, 221° | - | - |
| 1778016598 | 33.89° C | - | - | 0 mm | 4.02 m/s, 221° | - | - |
| 1778016298 | 34.44° C | - | - | 0 mm | 4.02 m/s, 252° | - | - |
| 1778015998 | 34.44° C | - | - | 0 mm | 4.02 m/s, 242° | - | - |
| 1778015696 | 34.44° C | - | - | 0 mm | 3.58 m/s, 285° | - | - |
* Rain latest hour (hover to see other rain measurements)
** Current wind speed in m/s (hover to see current wind gust speed)